Location: Newark
(34.6283°N, 36.0776°E)
Time: 16:17:21
(UTC+00:00)

Tiros 1 despin weight - Pass Details

Date: 28 September 2019
Orbit: 593 x 643 km, 48.2° (Epoch: 20 October)

Event Time Altitude Azimuth Distance (km) Brightness Sun altitude
Rises 06:06:28 0° 229° (SW) 2,922 ? 30.6°
Reaches altitude 10° 06:08:48 10° 228° (SW) 2,011 ? 31.0°
Maximum altitude 06:13:26 82° 141° (SE) 639 ? 31.9°
Drops below altitude 10° 06:18:02 10° 54° (NE) 1,991 ? 32.7°
Sets 06:20:20 0° 54° (NE) 2,891 ? 33.1°
